Weather History for Oxford, NC

Change the Weather History Date:

Thursday, January 26, 2012

  Actual Average (KTDF) Record (KTDF)
Temperature  
Mean Temperature 54 °F -  
Max Temperature 68 °F 50 °F 72 °F (1967)
Min Temperature 41 °F 28 °F 14 °F (1968)
Degree Days  
Heating Degree Days 10    
Growing Degree Days 4 (Base 50)    
Moisture  
Dew Point 47 °F    
Average Humidity 82    
Maximum Humidity 100    
Minimum Humidity 56    
Precipitation  
Precipitation 0.00 in - - ()
Sea Level Pressure  
Sea Level Pressure 30.05 in    
Wind  
Wind Speed 6 mph (South)    
Max Wind Speed 16 mph    
Max Gust Speed 21 mph    
Visibility 8 miles    
Events      
Averages and records for this station are not official NWS values.
T = Trace of Precipitation, MM = Missing Value Source: NWS Daily Summary

Daily Weather History Graph

Daily Weather History Graph

Search for Another Location

Airport:

Trip Planner

Search our weather history database for the weather conditions in past years. The results will help you decide how hot, cold, wet, or windy it might be!

Date:

Astronomy

Jan. 26, 2012 Rise Set
Actual Time 7:20 AM EST 5:33 PM EST
Civil Twilight 6:52 AM EST 6:00 PM EST
Nautical Twilight 6:21 AM EST 6:32 PM EST
Astronomical Twilight 5:50 AM EST 7:02 PM EST
Moon 8:54 AM EST (1/26) 9:15 PM EST (1/26)
Length of Visible Light 11h 08m
Length of Day
10h 13m
Waxing Crescent, 12% of the Moon is Illuminated
Jan 26
Waxing Crescent
Jan 30
First Quarter
Feb 7
Full
Feb 14
Last Quarter
Feb 21
New

Hourly Weather History & Observations

Time (EST) Temp. Windchill Dew Point Humidity Pressure Visibility Wind Dir Wind Speed Gust Speed Precip Events Conditions
12:15 AM 44.6 °F 42.2 °F 39.2 °F 81% 30.20 in 10.0 mi SSE 4.6 mph - N/A   Clear
12:35 AM 44.6 °F 42.2 °F 41.0 °F 87% 30.19 in 10.0 mi SSE 4.6 mph - N/A   Clear
12:55 AM 44.6 °F 42.2 °F 41.0 °F 87% 30.19 in 10.0 mi SSE 4.6 mph - N/A   Clear
1:15 AM 44.6 °F 42.2 °F 41.0 °F 87% 30.19 in 10.0 mi SSE 4.6 mph - N/A   Clear
1:35 AM 44.6 °F 41.4 °F 42.8 °F 93% 30.18 in 7.0 mi SSE 5.8 mph - N/A   Clear
1:55 AM 44.6 °F 42.2 °F 42.8 °F 93% 30.17 in 7.0 mi South 4.6 mph - N/A   Clear
2:15 AM 44.6 °F 43.1 °F 41.0 °F 87% 30.17 in 7.0 mi SSE 3.5 mph - N/A   Scattered Clouds
2:35 AM 42.8 °F - 41.0 °F 93% 30.17 in 7.0 mi Calm Calm - N/A   Clear
2:55 AM 41.0 °F - 39.2 °F 93% 30.17 in 5.0 mi Calm Calm - N/A   Clear
3:15 AM 42.8 °F 41.1 °F 41.0 °F 93% 30.16 in 7.0 mi South 3.5 mph - N/A   Scattered Clouds
3:35 AM 42.8 °F - 41.0 °F 93% 30.15 in 7.0 mi Calm Calm - N/A   Mostly Cloudy
3:55 AM 42.8 °F - 41.0 °F 93% 30.15 in 7.0 mi Calm Calm - N/A   Scattered Clouds
4:15 AM 42.8 °F 41.1 °F 41.0 °F 93% 30.16 in 7.0 mi West 3.5 mph - N/A   Clear
4:35 AM 41.0 °F 39.0 °F 41.0 °F 100% 30.15 in 5.0 mi SSW 3.5 mph - N/A   Clear
4:55 AM 42.8 °F 40.1 °F 41.0 °F 93% 30.15 in 7.0 mi SSW 4.6 mph - N/A   Clear
5:15 AM 42.8 °F 39.3 °F 41.0 °F 93% 30.14 in 7.0 mi South 5.8 mph - N/A   Clear
5:35 AM 42.8 °F 38.6 °F 41.0 °F 93% 30.13 in 7.0 mi South 6.9 mph - N/A   Clear
5:55 AM 42.8 °F 38.6 °F 41.0 °F 93% 30.14 in 7.0 mi South 6.9 mph - N/A   Clear
6:15 AM 42.8 °F 38.0 °F 41.0 °F 93% 30.13 in 7.0 mi South 8.1 mph - N/A   Clear
6:35 AM 42.8 °F 37.5 °F 41.0 °F 93% 30.12 in 7.0 mi South 9.2 mph - N/A   Scattered Clouds
7:15 AM 42.8 °F 39.3 °F 41.0 °F 93% 30.12 in 7.0 mi South 5.8 mph - N/A   Clear
7:35 AM 42.8 °F 39.3 °F 41.0 °F 93% 30.12 in 5.0 mi SSW 5.8 mph - N/A   Clear
7:55 AM 42.8 °F 38.6 °F 41.0 °F 93% 30.12 in 4.0 mi SSW 6.9 mph - N/A   Clear
8:15 AM 42.8 °F 38.6 °F 42.8 °F 100% 30.11 in 4.0 mi South 6.9 mph - N/A   Clear
8:35 AM 44.6 °F 40.7 °F 42.8 °F 93% 30.11 in 5.0 mi South 6.9 mph - N/A   Clear
8:55 AM 46.4 °F 42.4 °F 44.6 °F 93% 30.11 in 5.0 mi SSW 8.1 mph - N/A   Clear
9:15 AM 46.4 °F 41.9 °F 44.6 °F 93% 30.11 in 7.0 mi SSW 9.2 mph - N/A   Scattered Clouds
9:35 AM 46.4 °F 42.9 °F 44.6 °F 93% 30.11 in 7.0 mi SSW 6.9 mph - N/A   Mostly Cloudy
9:55 AM 48.2 °F - 44.6 °F 87% 30.11 in 7.0 mi South 6.9 mph - N/A   Overcast
10:15 AM 50.0 °F - 46.4 °F 87% 30.11 in 7.0 mi SSW 6.9 mph - N/A   Overcast
10:35 AM 50.0 °F - 46.4 °F 87% 30.11 in 7.0 mi SSW 6.9 mph - N/A   Overcast
10:55 AM 50.0 °F - 46.4 °F 87% 30.10 in 10.0 mi SSW 10.4 mph - N/A   Overcast
11:15 AM 51.8 °F - 46.4 °F 82% 30.09 in 10.0 mi South 11.5 mph - N/A   Overcast
11:35 AM 51.8 °F - 48.2 °F 88% 30.08 in 10.0 mi South 9.2 mph - N/A   Overcast
11:55 AM 57.2 °F - 50.0 °F 77% 30.06 in 10.0 mi South 12.7 mph - N/A   Scattered Clouds
12:15 PM 59.0 °F - 50.0 °F 72% 30.04 in 10.0 mi South 10.4 mph 16.1 mph N/A   Clear
12:35 PM 60.8 °F - 48.2 °F 63% 30.02 in 10.0 mi South 9.2 mph - N/A   Clear
12:55 PM 62.6 °F - 50.0 °F 63% 30.01 in 10.0 mi South 6.9 mph - N/A   Clear
1:15 PM 62.6 °F - 50.0 °F 63% 30.00 in 10.0 mi South 12.7 mph - N/A   Clear
1:35 PM 62.6 °F - 50.0 °F 63% 29.98 in 10.0 mi South 9.2 mph - N/A   Clear
1:55 PM 64.4 °F - 50.0 °F 59% 29.97 in 10.0 mi South 8.1 mph - N/A   Clear
2:15 PM 68.0 °F - 51.8 °F 56% 29.96 in 10.0 mi SSW 16.1 mph 20.7 mph N/A   Clear
2:35 PM 66.2 °F - 51.8 °F 60% 29.94 in 10.0 mi South 11.5 mph 18.4 mph N/A   Clear
2:55 PM 66.2 °F - 51.8 °F 60% 29.94 in 10.0 mi South 11.5 mph - N/A   Clear
3:15 PM 66.2 °F - 51.8 °F 60% 29.93 in 10.0 mi South 9.2 mph - N/A   Clear
3:35 PM 66.2 °F - 51.8 °F 60% 29.93 in 10.0 mi South 12.7 mph 16.1 mph N/A   Clear
3:55 PM 66.2 °F - 51.8 °F 60% 29.93 in 10.0 mi SSW 15.0 mph 19.6 mph N/A   Clear
4:15 PM 64.4 °F - 51.8 °F 64% 29.93 in 10.0 mi South 9.2 mph - N/A   Clear
4:35 PM 64.4 °F - 53.6 °F 68% 29.93 in 10.0 mi South 9.2 mph - N/A   Clear
4:55 PM 62.6 °F - 53.6 °F 72% 29.93 in 10.0 mi South 8.1 mph - N/A   Clear
5:15 PM 62.6 °F - 53.6 °F 72% 29.93 in 10.0 mi South 8.1 mph - N/A   Clear
5:35 PM 60.8 °F - 53.6 °F 77% 29.93 in 10.0 mi South 10.4 mph - N/A   Clear
5:55 PM 60.8 °F - 53.6 °F 77% 29.92 in 10.0 mi South 10.4 mph - N/A   Clear
6:15 PM 60.8 °F - 53.6 °F 77% 29.92 in 10.0 mi South 9.2 mph - N/A   Clear
6:35 PM 60.8 °F - 53.6 °F 77% 29.92 in 10.0 mi South 8.1 mph - N/A   Clear
6:55 PM 60.8 °F - 53.6 °F 77% 29.91 in 10.0 mi SSE 5.8 mph - N/A   Clear
7:15 PM 59.0 °F - 53.6 °F 82% 29.90 in 10.0 mi SSE 4.6 mph - N/A   Clear
7:55 PM 59.0 °F - 55.4 °F 88% 29.89 in 10.0 mi SSE 3.5 mph - N/A   Clear
8:15 PM 59.0 °F - 55.4 °F 88% 29.88 in 10.0 mi SSE 3.5 mph - N/A   Clear
8:55 PM 59.0 °F - 55.4 °F 88% 29.85 in 7.0 mi SSE 4.6 mph - N/A   Clear
9:15 PM 59.0 °F - 55.4 °F 88% 29.85 in 7.0 mi South 5.8 mph - N/A   Clear
9:35 PM 59.0 °F - 55.4 °F 88% 29.84 in 10.0 mi SSE 5.8 mph - N/A   Clear
9:55 PM 59.0 °F - 55.4 °F 88% 29.82 in 10.0 mi SSE 6.9 mph - N/A   Clear
10:15 PM 59.0 °F - 55.4 °F 88% 29.82 in 10.0 mi South 5.8 mph - N/A   Clear
10:35 PM 59.0 °F - 55.4 °F 88% 29.81 in 10.0 mi South 8.1 mph - N/A   Clear
10:55 PM 59.0 °F - 55.4 °F 88% 29.80 in 10.0 mi South 10.4 mph - N/A   Clear
11:15 PM 60.8 °F - 57.2 °F 88% 29.79 in 10.0 mi South 10.4 mph - N/A   Clear
11:35 PM 60.8 °F - 57.2 °F 88% 29.78 in 10.0 mi South 13.8 mph 18.4 mph N/A   Clear
11:55 PM 60.8 °F - 55.4 °F 82% 29.77 in 10.0 mi South 11.5 mph 20.7 mph N/A   Clear